QPF
0.01 0.01 0.01 0.00 0.00 0.01 0.01 0.01 0.02 0.03 0.02 0.02 0.01 0.02 0.02 0.02 0.02 0.03 0.02 0.01 0.03 0.03 0.03 0.04 0.05 0.07 0.05 0.05 0.05 0.05 0.03 0.05 0.05 0.03 0.03 0.02 0.03 0.04 0.04 0.03 0.03 0.03 0.03
0.01 0.01 0.01 0.00 0.00 0.01 0.01 0.01 0.02 0.03 0.03 0.02 0.02 0.02 0.02 0.03 0.04 0.03 0.02 0.02 0.03 0.02 0.02 0.03 0.05 0.06 0.05 0.04 0.03 0.04 0.03 0.05 0.05 0.05 0.04 0.03 0.05 0.06 0.05 0.03 0.03 0.02 0.02
0.02 0.01 0.01 0.01 0.01 0.01 0.01 0.02 0.03 0.03 0.03 0.03 0.02 0.02 0.02 0.03 0.03 0.02 0.02 0.03 0.03 0.01 0.01 0.03 0.04 0.05 0.06 0.07 0.05 0.04 0.03 0.04 0.06 0.06 0.04 0.03 0.03 0.04 0.04 0.03 0.02 0.02 0.01
0.02 0.02 0.03 0.03 0.01 0.01 0.00 0.02 0.03 0.04 0.03 0.03 0.02 0.02 0.02 0.03 0.02 0.02 0.02 0.04 0.03 0.01 0.02 0.04 0.05 0.06 0.07 0.08 0.06 0.05 0.05 0.05 0.07 0.07 0.05 0.03 0.03 0.02 0.02 0.02 0.02 0.01 0.00
0.02 0.02 0.04 0.03 0.01 0.01 0.00 0.02 0.03 0.03 0.03 0.03 0.04 0.04 0.03 0.03 0.02 0.02 0.02 0.03 0.02 0.02 0.03 0.04 0.07 0.07 0.07 0.08 0.07 0.07 0.07 0.07 0.08 0.09 0.06 0.04 0.03 0.03 0.02 0.02 0.02 0.01 0.00
0.01 0.03 0.04 0.03 0.01 0.01 0.01 0.03 0.05 0.04 0.04 0.04 0.04 0.04 0.04 0.03 0.02 0.02 0.03 0.04 0.03 0.04 0.04 0.04 0.06 0.07 0.09 0.09 0.06 0.06 0.07 0.10 0.09 0.09 0.07 0.06 0.04 0.02 0.01 0.01 0.01 0.01 0.01
0.02 0.04 0.04 0.03 0.02 0.02 0.02 0.04 0.06 0.06 0.05 0.04 0.04 0.04 0.03 0.02 0.01 0.01 0.02 0.03 0.03 0.03 0.02 0.03 0.03 0.05 0.07 0.06 0.05 0.05 0.05 0.07 0.08 0.11 0.11 0.08 0.07 0.07 0.04 0.02 0.01 0.01 0.01
0.03 0.04 0.02 0.04 0.02 0.03 0.05 0.09 0.08 0.08 0.07 0.05 0.04 0.03 0.02 0.01 0.01 0.01 0.01 0.02 0.02 0.02 0.02 0.02 0.03 0.04 0.03 0.03 0.04 0.06 0.06 0.05 0.06 0.09 0.11 0.13 0.12 0.09 0.07 0.05 0.04 0.03 0.03
0.01 0.02 0.03 0.03 0.04 0.05 0.07 0.08 0.08 0.06 0.05 0.04 0.02 0.03 0.01 0.01 0.01 0.01 0.02 0.03 0.03 0.02 0.02 0.03 0.02 0.02 0.03 0.03 0.03 0.03 0.03 0.03 0.04 0.08 0.09 0.11 0.13 0.10 0.07 0.07 0.07 0.04 0.04
0.01 0.02 0.03 0.05 0.05 0.05 0.06 0.06 0.06 0.05 0.04 0.03 0.03 0.02 0.02 0.02 0.02 0.02 0.03 0.03 0.02 0.02 0.02 0.02 0.01 0.02 0.02 0.01 0.01 0.01 0.03 0.03 0.02 0.05 0.07 0.10 0.10 0.10 0.08 0.07 0.07 0.05 0.05
0.01 0.01 0.02 0.03 0.02 0.03 0.05 0.06 0.06 0.04 0.03 0.03 0.02 0.02 0.02 0.02 0.03 0.03 0.03 0.03 0.02 0.01 0.01 0.01 0.01 0.01 0.01 0.01 0.02 0.02 0.02 0.02 0.03 0.05 0.07 0.09 0.08 0.09 0.09 0.07 0.06 0.05 0.05
0.01 0.01 0.01 0.01 0.02 0.02 0.03 0.04 0.04 0.04 0.03 0.03 0.03 0.03 0.02 0.02 0.02 0.02 0.02 0.02 0.02 0.01 0.02 0.01 0.01 0.02 0.02 0.03 0.03 0.02 0.02 0.03 0.04 0.04 0.05 0.07 0.07 0.07 0.07 0.07 0.06 0.05 0.05
0.00 0.00 0.00 0.01 0.02 0.02 0.03 0.04 0.04 0.05 0.04 0.04 0.04 0.03 0.02 0.03 0.03 0.02 0.02 0.02 0.02 0.02 0.01 0.01 0.02 0.03 0.03 0.03 0.02 0.03 0.03 0.04 0.04 0.03 0.03 0.04 0.05 0.06 0.06 0.06 0.05 0.06 0.05
0.01 0.00 0.00 0.01 0.01 0.02 0.08 0.09 0.08 0.07 0.06 0.05 0.03 0.02 0.01 0.02 0.03 0.03 0.03 0.03 0.03 0.03 0.02 0.02 0.02 0.03 0.03 0.02 0.03 0.03 0.03 0.03 0.04 0.03 0.02 0.03 0.03 0.04 0.05 0.05 0.05 0.05 0.05
0.00 0.00 0.00 0.01 0.01 0.02 0.05 0.07 0.05 0.03 0.04 0.04 0.02 0.01 0.02 0.02 0.03 0.03 0.03 0.03 0.03 0.02 0.02 0.02 0.02 0.03 0.02 0.02 0.03 0.04 0.05 0.05 0.05 0.04 0.03 0.03 0.05 0.05 0.06 0.06 0.06 0.06 0.06
0.01 0.01 0.01 0.02 0.02 0.02 0.03 0.05 0.06 0.05 0.04 0.03 0.03 0.03 0.03 0.03 0.03 0.03 0.02 0.02 0.02 0.02 0.02 0.02 0.02 0.02 0.01 0.02 0.03 0.04 0.05 0.06 0.07 0.07 0.05 0.07 0.08 0.08 0.09 0.08 0.07 0.06 0.06
0.02 0.02 0.02 0.02 0.02 0.02 0.03 0.04 0.04 0.05 0.05 0.04 0.04 0.03 0.03 0.02 0.02 0.02 0.02 0.02 0.01 0.01 0.01 0.01 0.02 0.01 0.01 0.01 0.02 0.02 0.03 0.04 0.07 0.09 0.07 0.07 0.08 0.07 0.07 0.07 0.06 0.04 0.03
0.03 0.02 0.02 0.02 0.02 0.02 0.02 0.03 0.04 0.07 0.08 0.05 0.03 0.02 0.02 0.01 0.01 0.01 0.00 0.01 0.01 0.01 0.01 0.02 0.02 0.02 0.02 0.02 0.01 0.02 0.02 0.04 0.05 0.07 0.08 0.07 0.07 0.06 0.05 0.06 0.05 0.03 0.02
0.02 0.01 0.01 0.02 0.02 0.01 0.01 0.02 0.03 0.04 0.05 0.05 0.04 0.03 0.02 0.02 0.01 0.01 0.01 0.01 0.01 0.01 0.02 0.02 0.02 0.02 0.02 0.02 0.02 0.03 0.02 0.02 0.04 0.07 0.07 0.07 0.07 0.07 0.06 0.06 0.05 0.04 0.03
0.01 0.01 0.01 0.01 0.01 0.02 0.02 0.02 0.02 0.01 0.02 0.02 0.02 0.01 0.01 0.01 0.01 0.01 0.01 0.01 0.01 0.01 0.02 0.02 0.02 0.02 0.02 0.02 0.02 0.02 0.02 0.03 0.03 0.04 0.04 0.07 0.10 0.10 0.08 0.07 0.06 0.05 0.04
0.01 0.01 0.01 0.01 0.01 0.01 0.02 0.02 0.01 0.01 0.01 0.01 0.01 0.01 0.01 0.01 0.01 0.02 0.01 0.01 0.01 0.02 0.02 0.01 0.01 0.01 0.01 0.01 0.02 0.02 0.02 0.02 0.02 0.02 0.03 0.04 0.08 0.09 0.09 0.08 0.06 0.05 0.04
0.00 0.00 0.00 0.01 0.01 0.01 0.02 0.03 0.02 0.02 0.02 0.01 0.01 0.01 0.01 0.01 0.01 0.02 0.02 0.02 0.02 0.01 0.01 0.01 0.01 0.01 0.01 0.01 0.02 0.02 0.02 0.03 0.04 0.03 0.03 0.04 0.06 0.06 0.05 0.05 0.05 0.06 0.05
0.00 0.00 0.00 0.01 0.01 0.02 0.03 0.03 0.03 0.02 0.01 0.01 0.01 0.01 0.01 0.01 0.01 0.02 0.03 0.02 0.01 0.01 0.01 0.01 0.01 0.01 0.02 0.03 0.03 0.03 0.03 0.04 0.05 0.05 0.05 0.05 0.06 0.05 0.04 0.04 0.04 0.05 0.05
0.00 0.00 0.00 0.01 0.01 0.02 0.03 0.02 0.02 0.02 0.01 0.01 0.01 0.01 0.01 0.01 0.02 0.02 0.02 0.02 0.02 0.02 0.02 0.02 0.02 0.02 0.02 0.03 0.03 0.03 0.03 0.04 0.04 0.04 0.06 0.06 0.05 0.04 0.03 0.03 0.03 0.03 0.04
0.00 0.01 0.01 0.02 0.02 0.02 0.02 0.01 0.02 0.02 0.02 0.02 0.02 0.02 0.02 0.03 0.03 0.03 0.03 0.04 0.04 0.05 0.04 0.05 0.05 0.04 0.04 0.04 0.04 0.04 0.05 0.06 0.06 0.06 0.07 0.06 0.05 0.04 0.03 0.02 0.02 0.02 0.02
0.01 0.02 0.02 0.03 0.04 0.03 0.02 0.02 0.03 0.03 0.03 0.03 0.03 0.03 0.02 0.02 0.02 0.02 0.03 0.04 0.05 0.04 0.04 0.04 0.04 0.03 0.03 0.04 0.04 0.05 0.05 0.06 0.09 0.07 0.06 0.04 0.04 0.03 0.03 0.03 0.02 0.01 0.01
MSLP
1010.60 1010.79 1010.96 1011.08 1011.17 1011.25 1011.38 1011.59 1011.90 1012.32 1012.81 1013.33 1013.83 1014.24 1014.53 1014.69 1014.73 1014.69 1014.62 1014.56 1014.56 1014.64 1014.79 1014.99 1015.19 1015.36 1015.47 1015.48 1015.39 1015.23 1015.02 1014.80 1014.62 1014.48 1014.42 1014.42 1014.47 1014.55 1014.62 1014.66 1014.64 1014.56 1014.42
1010.55 1010.80 1011.00 1011.12 1011.17 1011.20 1011.25 1011.38 1011.64 1012.03 1012.52 1013.07 1013.60 1014.05 1014.38 1014.55 1014.57 1014.50 1014.38 1014.27 1014.24 1014.29 1014.44 1014.66 1014.90 1015.12 1015.26 1015.30 1015.24 1015.09 1014.88 1014.67 1014.49 1014.39 1014.38 1014.45 1014.60 1014.79 1014.97 1015.13 1015.22 1015.24 1015.17
1010.40 1010.73 1010.98 1011.14 1011.20 1011.20 1011.20 1011.27 1011.48 1011.83 1012.30 1012.85 1013.40 1013.88 1014.22 1014.41 1014.43 1014.33 1014.18 1014.04 1013.97 1014.01 1014.15 1014.39 1014.66 1014.91 1015.10 1015.18 1015.15 1015.02 1014.83 1014.64 1014.48 1014.42 1014.45 1014.59 1014.82 1015.11 1015.40 1015.66 1015.86 1015.97 1015.99
1010.07 1010.47 1010.81 1011.04 1011.13 1011.15 1011.14 1011.18 1011.35 1011.66 1012.11 1012.65 1013.21 1013.70 1014.06 1014.26 1014.29 1014.20 1014.04 1013.88 1013.80 1013.83 1013.97 1014.22 1014.52 1014.80 1015.03 1015.15 1015.16 1015.06 1014.91 1014.74 1014.61 1014.58 1014.65 1014.84 1015.13 1015.48 1015.85 1016.19 1016.47 1016.67 1016.76
1009.48 1009.96 1010.40 1010.71 1010.89 1010.96 1010.97 1011.02 1011.18 1011.47 1011.90 1012.43 1012.98 1013.49 1013.87 1014.10 1014.15 1014.08 1013.94 1013.80 1013.73 1013.76 1013.92 1014.18 1014.50 1014.82 1015.08 1015.24 1015.29 1015.24 1015.12 1014.98 1014.89 1014.87 1014.97 1015.18 1015.49 1015.87 1016.28 1016.67 1017.00 1017.25 1017.39
1008.63 1009.18 1009.71 1010.13 1010.41 1010.56 1010.64 1010.73 1010.90 1011.20 1011.62 1012.15 1012.71 1013.22 1013.64 1013.90 1014.00 1013.98 1013.88 1013.78 1013.74 1013.81 1013.99 1014.28 1014.62 1014.96 1015.25 1015.46 1015.55 1015.54 1015.46 1015.35 1015.28 1015.28 1015.38 1015.59 1015.89 1016.26 1016.67 1017.06 1017.40 1017.67 1017.85
1007.61 1008.20 1008.80 1009.31 1009.69 1009.94 1010.11 1010.27 1010.48 1010.81 1011.25 1011.78 1012.36 1012.90 1013.35 1013.66 1013.83 1013.87 1013.85 1013.82 1013.83 1013.94 1014.16 1014.48 1014.84 1015.21 1015.54 1015.77 1015.90 1015.93 1015.89 1015.82 1015.77 1015.77 1015.86 1016.05 1016.32 1016.65 1017.02 1017.38 1017.71 1017.96 1018.14
1006.56 1007.14 1007.77 1008.35 1008.82 1009.16 1009.42 1009.66 1009.94 1010.31 1010.79 1011.35 1011.94 1012.52 1013.01 1013.39 1013.63 1013.76 1013.82 1013.88 1013.97 1014.14 1014.41 1014.76 1015.15 1015.54 1015.89 1016.16 1016.32 1016.39 1016.39 1016.35 1016.31 1016.32 1016.39 1016.55 1016.78 1017.06 1017.37 1017.68 1017.96 1018.18 1018.33
1005.64 1006.17 1006.79 1007.39 1007.90 1008.32 1008.66 1008.97 1009.32 1009.75 1010.27 1010.86 1011.49 1012.10 1012.65 1013.08 1013.41 1013.63 1013.79 1013.94 1014.12 1014.37 1014.69 1015.08 1015.50 1015.92 1016.29 1016.58 1016.77 1016.88 1016.90 1016.89 1016.88 1016.90 1016.96 1017.09 1017.27 1017.50 1017.75 1018.00 1018.23 1018.41 1018.53
1005.03 1005.45 1006.00 1006.56 1007.07 1007.51 1007.90 1008.28 1008.70 1009.18 1009.75 1010.38 1011.04 1011.69 1012.28 1012.78 1013.18 1013.49 1013.75 1014.00 1014.27 1014.59 1014.97 1015.40 1015.86 1016.30 1016.69 1017.00 1017.22 1017.36 1017.42 1017.44 1017.46 1017.49 1017.56 1017.67 1017.82 1018.01 1018.21 1018.40 1018.58 1018.72 1018.80
1004.82 1005.11 1005.52 1005.98 1006.43 1006.85 1007.25 1007.66 1008.13 1008.66 1009.27 1009.94 1010.64 1011.32 1011.95 1012.50 1012.97 1013.36 1013.71 1014.05 1014.40 1014.80 1015.25 1015.72 1016.21 1016.67 1017.08 1017.41 1017.66 1017.82 1017.92 1017.98 1018.03 1018.09 1018.17 1018.28 1018.42 1018.58 1018.74 1018.90 1019.04 1019.14 1019.20
1005.03 1005.14 1005.39 1005.69 1006.02 1006.37 1006.74 1007.16 1007.65 1008.22 1008.87 1009.57 1010.29 1011.00 1011.67 1012.26 1012.78 1013.25 1013.67 1014.09 1014.53 1015.00 1015.51 1016.03 1016.55 1017.04 1017.46 1017.81 1018.08 1018.28 1018.41 1018.51 1018.59 1018.68 1018.78 1018.90 1019.04 1019.19 1019.33 1019.47 1019.58 1019.66 1019.71
1005.57 1005.50 1005.54 1005.66 1005.84 1006.08 1006.38 1006.78 1007.28 1007.87 1008.54 1009.28 1010.03 1010.76 1011.45 1012.08 1012.65 1013.16 1013.66 1014.15 1014.66 1015.20 1015.76 1016.33 1016.88 1017.39 1017.84 1018.21 1018.50 1018.72 1018.88 1019.01 1019.13 1019.25 1019.37 1019.51 1019.65 1019.79 1019.92 1020.04 1020.14 1020.20 1020.24
1006.29 1006.04 1005.87 1005.79 1005.80 1005.91 1006.14 1006.49 1006.98 1007.59 1008.29 1009.05 1009.83 1010.58 1011.30 1011.96 1012.56 1013.13 1013.68 1014.23 1014.81 1015.40 1016.02 1016.63 1017.21 1017.74 1018.21 1018.59 1018.90 1019.14 1019.33 1019.49 1019.63 1019.77 1019.91 1020.05 1020.20 1020.33 1020.44 1020.54 1020.62 1020.67 1020.70
1007.04 1006.61 1006.25 1005.98 1005.82 1005.80 1005.95 1006.26 1006.74 1007.36 1008.09 1008.88 1009.68 1010.46 1011.20 1011.89 1012.53 1013.14 1013.74 1014.35 1014.97 1015.62 1016.28 1016.92 1017.53 1018.08 1018.56 1018.96 1019.28 1019.54 1019.74 1019.92 1020.08 1020.23 1020.37 1020.51 1020.64 1020.75 1020.84 1020.91 1020.96 1021.00 1021.01
1007.65 1007.08 1006.55 1006.12 1005.82 1005.69 1005.76 1006.04 1006.52 1007.16 1007.91 1008.73 1009.57 1010.38 1011.16 1011.88 1012.55 1013.20 1013.84 1014.49 1015.16 1015.84 1016.53 1017.19 1017.82 1018.38 1018.87 1019.28 1019.61 1019.88 1020.10 1020.28 1020.45 1020.60 1020.73 1020.86 1020.96 1021.04 1021.09 1021.12 1021.13 1021.14 1021.14
1008.03 1007.36 1006.71 1006.15 1005.74 1005.54 1005.56 1005.82 1006.30 1006.96 1007.75 1008.60 1009.48 1010.33 1011.14 1011.89 1012.60 1013.28 1013.96 1014.64 1015.34 1016.04 1016.75 1017.43 1018.06 1018.62 1019.12 1019.53 1019.86 1020.14 1020.37 1020.56 1020.73 1020.87 1020.99 1021.09 1021.16 1021.19 1021.20 1021.18 1021.15 1021.12 1021.10
1008.16 1007.42 1006.70 1006.07 1005.60 1005.35 1005.35 1005.61 1006.11 1006.79 1007.61 1008.49 1009.40 1010.29 1011.13 1011.92 1012.66 1013.37 1014.07 1014.77 1015.49 1016.20 1016.91 1017.59 1018.21 1018.77 1019.26 1019.67 1020.01 1020.30 1020.54 1020.74 1020.91 1021.05 1021.16 1021.23 1021.26 1021.26 1021.21 1021.15 1021.08 1021.01 1020.97
1008.10 1007.33 1006.58 1005.92 1005.44 1005.18 1005.18 1005.44 1005.95 1006.66 1007.49 1008.41 1009.34 1010.25 1011.12 1011.93 1012.70 1013.43 1014.15 1014.87 1015.58 1016.29 1016.99 1017.65 1018.26 1018.81 1019.29 1019.70 1020.05 1020.35 1020.60 1020.82 1021.00 1021.15 1021.26 1021.32 1021.32 1021.28 1021.20 1021.09 1020.98 1020.89 1020.84
1007.93 1007.18 1006.43 1005.79 1005.32 1005.07 1005.08 1005.36 1005.88 1006.59 1007.43 1008.35 1009.29 1010.21 1011.09 1011.92 1012.71 1013.46 1014.19 1014.90 1015.61 1016.31 1016.98 1017.62 1018.21 1018.74 1019.21 1019.62 1019.98 1020.30 1020.58 1020.82 1021.02 1021.19 1021.30 1021.36 1021.36 1021.30 1021.20 1021.07 1020.94 1020.84 1020.77
1007.77 1007.05 1006.35 1005.74 1005.30 1005.08 1005.11 1005.39 1005.91 1006.60 1007.43 1008.33 1009.25 1010.17 1011.05 1011.88 1012.68 1013.43 1014.16 1014.88 1015.57 1016.25 1016.90 1017.51 1018.08 1018.59 1019.05 1019.47 1019.84 1020.17 1020.48 1020.75 1020.99 1021.17 1021.31 1021.38 1021.39 1021.33 1021.22 1021.10 1020.97 1020.86 1020.80
1007.68 1007.01 1006.37 1005.82 1005.43 1005.24 1005.28 1005.56 1006.04 1006.70 1007.48 1008.34 1009.23 1010.12 1010.98 1011.81 1012.60 1013.36 1014.09 1014.80 1015.48 1016.14 1016.77 1017.36 1017.90 1018.40 1018.85 1019.27 1019.65 1020.00 1020.33 1020.63 1020.90 1021.11 1021.27 1021.36 1021.39 1021.35 1021.26 1021.15 1021.04 1020.95 1020.90
1007.69 1007.10 1006.53 1006.04 1005.70 1005.54 1005.58 1005.83 1006.27 1006.87 1007.58 1008.38 1009.21 1010.06 1010.89 1011.71 1012.49 1013.24 1013.98 1014.68 1015.36 1016.01 1016.62 1017.19 1017.72 1018.21 1018.65 1019.07 1019.46 1019.82 1020.16 1020.48 1020.77 1021.00 1021.18 1021.29 1021.34 1021.33 1021.27 1021.18 1021.10 1021.04 1021.02
1007.80 1007.28 1006.78 1006.37 1006.07 1005.92 1005.95 1006.16 1006.54 1007.06 1007.70 1008.42 1009.18 1009.98 1010.77 1011.57 1012.34 1013.10 1013.84 1014.55 1015.24 1015.88 1016.49 1017.05 1017.57 1018.05 1018.49 1018.90 1019.28 1019.65 1019.99 1020.31 1020.59 1020.83 1021.02 1021.15 1021.21 1021.22 1021.20 1021.15 1021.10 1021.08 1021.10
1007.93 1007.50 1007.08 1006.72 1006.46 1006.33 1006.34 1006.50 1006.81 1007.24 1007.79 1008.43 1009.12 1009.86 1010.62 1011.39 1012.16 1012.93 1013.68 1014.41 1015.11 1015.77 1016.38 1016.95 1017.47 1017.94 1018.37 1018.77 1019.15 1019.49 1019.82 1020.12 1020.38 1020.61 1020.78 1020.91 1020.99 1021.02 1021.03 1021.02 1021.02 1021.04 1021.09
1008.03 1007.68 1007.34 1007.04 1006.81 1006.68 1006.66 1006.77 1007.00 1007.36 1007.82 1008.37 1009.00 1009.68 1010.41 1011.17 1011.94 1012.72 1013.49 1014.24 1014.97 1015.65 1016.28 1016.86 1017.39 1017.86 1018.29 1018.67 1019.02 1019.34 1019.63 1019.90 1020.13 1020.33 1020.48 1020.60 1020.68 1020.73 1020.77 1020.80 1020.85 1020.91 1021.00
Thickness
5805 5804 5802 5801 5798 5795 5793 5792 5790 5789 5787 5783 5780 5777 5775 5775 5774 5774 5773 5772 5770 5768 5766 5764 5762 5760 5757 5756 5754 5753 5750 5749 5749 5747 5746 5748 5749 5749 5748 5748 5747 5746 5745
5802 5802 5801 5799 5797 5795 5793 5791 5790 5788 5787 5785 5782 5779 5777 5775 5774 5773 5772 5771 5770 5768 5766 5764 5761 5759 5757 5755 5753 5751 5748 5747 5747 5744 5740 5738 5741 5745 5747 5745 5745 5744 5743
5802 5801 5800 5798 5797 5795 5794 5792 5789 5788 5786 5785 5781 5778 5775 5774 5772 5770 5770 5770 5768 5767 5765 5763 5761 5759 5756 5754 5752 5750 5748 5744 5744 5744 5740 5734 5732 5736 5740 5742 5742 5741 5741
5806 5803 5801 5799 5799 5798 5797 5793 5790 5788 5787 5785 5781 5776 5772 5769 5770 5769 5769 5768 5767 5766 5764 5762 5760 5758 5756 5753 5752 5751 5748 5745 5742 5741 5741 5739 5736 5731 5731 5736 5738 5739 5738
5808 5806 5805 5804 5802 5800 5797 5794 5790 5787 5786 5783 5781 5777 5773 5771 5770 5769 5768 5767 5766 5765 5763 5761 5759 5757 5755 5753 5751 5750 5748 5745 5742 5740 5739 5737 5735 5732 5728 5727 5731 5733 5735
5810 5808 5807 5804 5801 5799 5797 5794 5789 5786 5785 5782 5779 5777 5773 5770 5768 5766 5765 5764 5764 5763 5762 5760 5758 5756 5754 5752 5750 5748 5746 5744 5742 5740 5738 5736 5733 5730 5728 5725 5726 5727 5731
5809 5806 5803 5801 5799 5797 5795 5793 5789 5785 5784 5781 5778 5776 5773 5770 5768 5766 5764 5762 5761 5760 5760 5759 5757 5755 5753 5751 5749 5747 5745 5743 5741 5739 5737 5736 5735 5733 5729 5726 5724 5723 5726
5808 5806 5805 5802 5799 5797 5794 5792 5788 5784 5782 5780 5778 5776 5773 5770 5768 5766 5764 5762 5760 5759 5759 5757 5755 5753 5751 5749 5747 5745 5743 5742 5740 5739 5737 5735 5734 5732 5730 5726 5722 5719 5720
5807 5805 5804 5801 5799 5796 5794 5791 5787 5784 5781 5779 5777 5774 5772 5769 5767 5765 5763 5761 5759 5758 5756 5755 5753 5751 5749 5747 5745 5742 5741 5739 5738 5737 5735 5733 5732 5731 5729 5727 5724 5719 5715
5804 5804 5802 5800 5798 5796 5793 5791 5787 5783 5780 5779 5775 5773 5770 5768 5765 5763 5760 5758 5756 5755 5753 5751 5749 5748 5746 5744 5742 5740 5739 5737 5735 5734 5732 5731 5730 5728 5726 5724 5723 5720 5716
5802 5801 5799 5798 5796 5794 5791 5787 5784 5781 5777 5775 5772 5769 5767 5765 5763 5760 5758 5756 5754 5752 5750 5748 5746 5745 5743 5742 5739 5737 5736 5734 5732 5731 5729 5728 5727 5725 5723 5721 5719 5717 5715
5800 5799 5797 5794 5792 5789 5787 5784 5782 5778 5775 5772 5769 5766 5763 5761 5759 5757 5755 5754 5751 5750 5748 5746 5743 5741 5740 5738 5736 5734 5733 5731 5729 5728 5726 5724 5724 5721 5719 5717 5715 5714 5712
5795 5794 5792 5790 5788 5786 5783 5781 5778 5775 5773 5770 5766 5763 5760 5758 5756 5754 5753 5750 5748 5746 5744 5742 5740 5737 5735 5733 5732 5730 5729 5728 5726 5725 5722 5721 5719 5717 5715 5713 5711 5710 5708
5790 5788 5786 5785 5784 5782 5779 5778 5774 5772 5770 5767 5763 5760 5758 5756 5753 5751 5749 5747 5745 5743 5741 5739 5737 5734 5731 5729 5727 5726 5725 5724 5723 5721 5719 5717 5715 5713 5711 5709 5707 5705 5702
5785 5784 5782 5781 5780 5778 5776 5774 5772 5769 5766 5763 5760 5758 5756 5753 5750 5748 5745 5743 5741 5739 5737 5735 5733 5730 5729 5726 5723 5721 5720 5719 5718 5717 5715 5714 5712 5710 5708 5706 5703 5700 5697
5780 5780 5779 5777 5775 5774 5772 5770 5768 5765 5762 5758 5755 5753 5751 5749 5746 5744 5741 5738 5736 5734 5732 5730 5728 5725 5724 5722 5720 5717 5715 5714 5712 5711 5711 5710 5708 5706 5704 5702 5700 5697 5693
5775 5774 5773 5772 5771 5771 5769 5767 5765 5762 5758 5754 5751 5748 5746 5744 5741 5740 5737 5734 5731 5729 5727 5725 5723 5720 5719 5717 5715 5713 5711 5709 5707 5705 5704 5703 5703 5700 5698 5696 5694 5691 5689
5770 5769 5768 5768 5767 5767 5765 5763 5760 5756 5753 5750 5747 5744 5741 5739 5737 5734 5732 5729 5727 5724 5722 5720 5719 5716 5714 5712 5710 5708 5705 5704 5702 5699 5697 5696 5694 5694 5691 5689 5687 5684 5682
5766 5766 5766 5764 5763 5761 5760 5757 5754 5750 5748 5746 5743 5740 5737 5734 5732 5729 5727 5725 5722 5720 5718 5716 5713 5710 5708 5706 5704 5702 5700 5697 5695 5694 5691 5689 5687 5686 5683 5681 5679 5676 5674
5760 5760 5759 5757 5755 5755 5753 5749 5746 5743 5741 5740 5738 5736 5733 5730 5727 5725 5723 5720 5718 5715 5713 5710 5708 5705 5703 5700 5698 5696 5694 5691 5688 5686 5684 5682 5679 5677 5674 5672 5670 5667 5666
5754 5753 5752 5750 5748 5748 5746 5742 5739 5737 5737 5735 5733 5730 5727 5725 5723 5720 5718 5715 5712 5709 5706 5704 5702 5699 5697 5694 5691 5689 5686 5683 5681 5679 5676 5674 5672 5669 5666 5664 5662 5660 5658
5745 5744 5742 5742 5742 5741 5738 5734 5732 5733 5732 5729 5726 5724 5722 5720 5719 5714 5712 5709 5706 5703 5700 5697 5695 5692 5690 5687 5684 5682 5679 5676 5673 5671 5669 5666 5663 5660 5658 5656 5654 5652 5650
5735 5735 5734 5733 5733 5732 5730 5727 5727 5726 5724 5721 5719 5717 5716 5714 5712 5709 5706 5703 5700 5697 5694 5691 5688 5685 5683 5680 5677 5674 5671 5668 5666 5664 5661 5658 5655 5653 5650 5648 5646 5644 5642
5725 5725 5724 5722 5722 5722 5722 5721 5720 5718 5716 5713 5711 5710 5708 5706 5705 5702 5700 5697 5694 5691 5688 5685 5682 5679 5675 5672 5669 5666 5663 5660 5658 5656 5653 5650 5647 5645 5642 5640 5638 5636 5633
5715 5714 5713 5714 5714 5714 5714 5714 5712 5710 5707 5705 5703 5701 5700 5698 5696 5695 5693 5691 5688 5685 5681 5678 5675 5671 5668 5666 5662 5659 5656 5653 5650 5647 5643 5641 5639 5636 5634 5631 5629 5627 5624
5706 5704 5703 5704 5705 5704 5705 5705 5704 5702 5699 5697 5695 5693 5691 5689 5688 5685 5683 5681 5679 5677 5674 5671 5667 5665 5662 5658 5654 5651 5648 5645 5641 5637 5635 5632 5629 5627 5625 5622 5619 5617 5615